Home > Weather > Hobart > Past weeks

Flag for Australia Weather for the Past 2 Weeks in Hobart, Tasmania, Australia

Now
55 °F

Passing clouds.


Feels Like: 55 °F
Forecast: 52 / 71 °F
Wind: 5 mph from North

Location: Hobart Airport

Current Time: Apr 30, 2016 at 2:18:27 AM

Latest Report: Apr 30, 2016 at 2:00 AM


Visibility: N/A

Pressure: 29.83 "Hg

Humidity: 88%

Dew Point: 52 °F

Location of HobartLocation

Historic Weather in Hobart — Graph

°F

Hobart Temperature Yesterday

Maximum temperature yesterday: 73 °F (at 1:00 PM)
Minimum temperature yesterday: 52 °F (at 4:30 AM)
Average temperature yesterday: 60 °F

High & Low Weather Summary for the Past Weeks

 TemperatureHumidityPressure
High79 °F (Apr 20, 2:30 PM)100% (Apr 28, 12:30 PM)30.42 "Hg (Apr 28, 12:30 PM)
Low41 °F (Apr 17, 5:30 AM)10% (Apr 19, 1:00 PM)29.77 "Hg (Apr 29, 1:30 PM)
Average59 °F62%30.12 "Hg
* Reported Apr 15 1:00 AM — Apr 30 1:00 AM, Hobart, Weather by CustomWeather, © 2016

Note: Actual official high and low records may vary slightly from our data, if they occured in-between our weather recording intervals... More about our weather records

Advertising

Hobart Weather History for the Previous 24 Hours

Scroll right to see more
 ConditionsComfort  
Time TempWeatherWind HumidityBarometerVisibility
1:00 AM
Sat, Apr 30
57 °FPassing clouds.6 mph88%29.83 "HgN/A
12:00 AM61 °FPassing clouds.9 mph77%29.83 "HgN/A
11:00 PM
Fri, Apr 29
61 °FPassing clouds.8 mph77%29.83 "HgN/A
10:30 PM61 °FPassing clouds.8 mph77%29.83 "HgN/A
10:00 PM61 °FPassing clouds.12 mph77%29.83 "HgN/A
9:00 PM61 °FPassing clouds.8 mph77%29.80 "HgN/A
8:00 PM61 °FPartly cloudy.9 mph83%29.77 "HgN/A
7:00 PM61 °FPassing clouds.13 mph77%29.77 "HgN/A
6:30 PM61 °FLight rain. Passing clouds.13 mph83%29.77 "HgN/A
6:00 PM61 °FLight rain. Passing clouds.14 mph88%29.77 "HgN/A
5:30 PM61 °FLight rain. Partly cloudy.14 mph88%29.77 "HgN/A
5:00 PM63 °FLight rain. Partly cloudy.13 mph83%29.77 "HgN/A
4:30 PM64 °FLight rain. Passing clouds.18 mph78%29.77 "HgN/A
4:00 PM66 °FLight rain. Broken clouds.16 mph68%29.77 "HgN/A
3:00 PM70 °FBroken clouds.16 mph53%29.77 "HgN/A
2:00 PM70 °FPartly sunny.16 mph53%29.77 "HgN/A
1:30 PM72 °FPartly sunny.17 mph47%29.77 "HgN/A
1:00 PM73 °FBroken clouds.20 mph47%29.80 "HgN/A
12:30 PM72 °FSunny.8 mph53%29.83 "Hg10 mi
12:00 PM70 °FPartly sunny.6 mph60%29.83 "HgN/A
11:30 AM66 °FPartly sunny.5 mph68%29.86 "HgN/A
11:00 AM64 °FPartly sunny.1 mph73%29.89 "HgN/A
10:00 AM61 °FBroken clouds.3 mph83%29.92 "HgN/A
9:00 AM57 °FLight rain. Partly sunny.1 mph94%29.95 "HgN/A
8:00 AM55 °FPartly sunny.2 mph94%29.98 "HgN/A
7:00 AM54 °FBroken clouds.No wind94%29.95 "HgN/A
6:00 AM54 °FBroken clouds.No wind94%29.98 "HgN/A
5:00 AM54 °FPartly cloudy.1 mph94%29.98 "HgN/A
4:30 AM52 °FPartly cloudy.2 mph100%29.98 "HgN/A
4:00 AM54 °FPartly cloudy.No wind94%30.01 "HgN/A
3:30 AM54 °FPartly cloudy.No wind94%30.01 "HgN/A
3:00 AM54 °FPartly cloudy.5 mph100%30.04 "HgN/A
2:30 AM54 °FPartly cloudy.6 mph100%30.04 "HgN/A
2:00 AM54 °FPassing clouds.3 mph94%30.04 "HgN/A
Weather by CustomWeather, © 2016

See weather overviewHow to use our weather pages